| time (UTC) | temp F | wind direction | speed knots | gust knots | rain 1hr in | rain 24hr in | rain mn in | humidity % | barometer mb |
| 20260503050256 | 36 | 356 | 1.7 | 1.7 | 0.00 | 0.00 | 0.00 | 76 | 1009.0 |
| 20260503045754 | 36 | 334 | 2.6 | 2.6 | 0.00 | 0.00 | 0.00 | 77 | 1009.2 |
| 20260503045252 | 36 | 325 | 1.7 | 1.7 | 0.00 | 0.00 | 0.00 | 75 | 1009.1 |
| 20260503044748 | 37 | 319 | 2.6 | 2.6 | 0.00 | 0.00 | 0.00 | 75 | 1009.1 |
| 20260503044245 | 37 | 309 | 2.6 | 4.3 | 0.00 | 0.00 | 0.00 | 75 | 1009.4 |
| 20260503043742 | 37 | 319 | 2.6 | 2.6 | 0.00 | 0.00 | 0.00 | 75 | 1009.2 |
| 20260503043239 | 37 | 331 | 0.9 | 1.7 | 0.00 | 0.00 | 0.00 | 75 | 1009.2 |
| 20260503042735 | 37 | 324 | 2.6 | 2.6 | 0.00 | 0.00 | 0.00 | 75 | 1009.3 |
| 20260503042232 | 37 | 326 | 2.6 | 2.6 | 0.00 | 0.00 | 0.00 | 75 | 1009.2 |
| 20260503041728 | 37 | 331 | 1.7 | 2.6 | 0.00 | 0.00 | 0.00 | 74 | 1009.2 |
| 20260503041226 | 37 | 335 | 1.7 | 1.7 | 0.00 | 0.00 | 0.00 | 74 | 1009.5 |
| 20260503040724 | 37 | 0 | 0.9 | 0.9 | 0.00 | 0.00 | 0.00 | 74 | 1009.4 |
| 20260503040221 | 37 | 325 | 1.7 | 1.7 | 0.00 | 0.00 | 0.00 | 74 | 1009.2 |
| 20260503035717 | 37 | 355 | 1.7 | 1.7 | 0.00 | 0.04 | 0.04 | 74 | 1009.4 |
| 20260503035215 | 37 | 320 | 1.7 | 1.7 | 0.00 | 0.04 | 0.04 | 74 | 1009.5 |
| 20260503034712 | 37 | 323 | 1.7 | 2.6 | 0.00 | 0.04 | 0.04 | 75 | 1009.2 |
| 20260503034209 | 37 | 308 | 1.7 | 1.7 | 0.00 | 0.04 | 0.04 | 74 | 1009.5 |
| 20260503033706 | 37 | 310 | 1.7 | 1.7 | 0.00 | 0.04 | 0.04 | 75 | 1009.5 |
| 20260503033204 | 36 | 306 | 1.7 | 1.7 | 0.00 | 0.04 | 0.04 | 76 | 1009.3 |
| 20260503032702 | 36 | 347 | 0.9 | 1.7 | 0.00 | 0.04 | 0.04 | 77 | 1009.3 |
| 20260503032200 | 36 | 357 | 0.9 | 0.9 | 0.00 | 0.04 | 0.04 | 78 | 1009.3 |
| 20260503031657 | 34 | 355 | 0.9 | 0.9 | 0.00 | 0.04 | 0.04 | 82 | 1009.6 |
| 20260503031155 | 34 | 22 | 0.0 | 0.9 | 0.00 | 0.04 | 0.04 | 85 | 1009.5 |
| 20260503030651 | 34 | 21 | 0.0 | 0.9 | 0.00 | 0.04 | 0.04 | 82 | 1009.7 |
| 20260503030148 | 35 | 21 | 0.0 | 0.9 | 0.00 | 0.04 | 0.04 | 81 | 1009.5 |
| 20260503025644 | 34 | 6 | 0.9 | 0.9 | 0.00 | 0.04 | 0.04 | 82 | 1009.7 |
| 20260503025143 | 34 | 21 | 0.0 | 0.0 | 0.00 | 0.04 | 0.04 | 84 | 1009.3 |
| 20260503024638 | 35 | 21 | 0.0 | 0.9 | 0.00 | 0.04 | 0.04 | 82 | 1009.5 |
| 20260503024136 | 35 | 21 | 0.0 | 0.0 | 0.00 | 0.04 | 0.04 | 80 | 1009.5 |
| 20260503023633 | 36 | 21 | 0.0 | 0.0 | 0.00 | 0.04 | 0.04 | 79 | 1009.5 |
| 20260503023130 | 36 | 21 | 0.0 | 0.0 | 0.00 | 0.04 | 0.04 | 76 | 1009.6 |
| 20260503022625 | 36 | 20 | 0.0 | 0.9 | 0.00 | 0.04 | 0.04 | 76 | 1009.5 |
| 20260503022120 | 37 | 19 | 0.9 | 0.9 | 0.00 | 0.04 | 0.04 | 76 | 1009.6 |
| 20260503021618 | 37 | 19 | 0.9 | 0.9 | 0.00 | 0.04 | 0.04 | 75 | 1009.4 |
| 20260503021114 | 37 | 8 | 0.9 | 0.9 | 0.00 | 0.04 | 0.04 | 76 | 1009.4 |
| 20260503020611 | 37 | 23 | 0.0 | 0.0 | 0.00 | 0.04 | 0.04 | 76 | 1009.5 |
| 20260503020109 | 37 | 23 | 0.0 | 0.0 | 0.00 | 0.04 | 0.04 | 74 | 1009.7 |
| 20260503015605 | 38 | 23 | 0.0 | 0.0 | 0.00 | 0.04 | 0.04 | 72 | 1009.8 |
| 20260503015102 | 39 | 19 | 0.9 | 0.9 | 0.00 | 0.04 | 0.04 | 71 | 1009.8 |
| 20260503014558 | 39 | 18 | 0.9 | 0.9 | 0.00 | 0.04 | 0.04 | 69 | 1009.6 |
| 20260503014056 | 39 | 359 | 0.9 | 0.9 | 0.00 | 0.04 | 0.04 | 69 | 1009.5 |
| 20260503013553 | 39 | 17 | 0.9 | 0.9 | 0.00 | 0.04 | 0.04 | 68 | 1009.6 |
| 20260503013051 | 39 | 9 | 0.0 | 0.9 | 0.00 | 0.04 | 0.04 | 68 | 1009.7 |
| 20260503012548 | 40 | 354 | 1.7 | 1.7 | 0.00 | 0.04 | 0.04 | 67 | 1009.5 |
| 20260503012044 | 40 | 13 | 0.9 | 0.9 | 0.00 | 0.04 | 0.04 | 67 | 1009.6 |
| 20260503011541 | 40 | 32 | 0.9 | 0.9 | 0.00 | 0.04 | 0.04 | 67 | 1009.7 |
| 20260503011038 | 40 | 354 | 0.9 | 1.7 | 0.00 | 0.04 | 0.04 | 66 | 1009.5 |
| 20260503010534 | 40 | 353 | 0.9 | 0.9 | 0.00 | 0.04 | 0.04 | 66 | 1009.5 |
| 20260503010032 | 40 | 17 | 1.7 | 1.7 | 0.00 | 0.04 | 0.04 | 67 | 1009.6 |
| 20260503005529 | 41 | 10 | 0.9 | 0.9 | 0.00 | 0.04 | 0.04 | 66 | 1009.3 |
| 20260503005026 | 41 | 335 | 1.7 | 1.7 | 0.00 | 0.04 | 0.04 | 66 | 1009.2 |
| 20260503004522 | 41 | 327 | 1.7 | 1.7 | 0.00 | 0.04 | 0.04 | 67 | 1009.3 |
| 20260503004021 | 41 | 39 | 0.9 | 0.9 | 0.00 | 0.04 | 0.04 | 67 | 1009.3 |
| 20260503003517 | 41 | 328 | 1.7 | 1.7 | 0.00 | 0.04 | 0.04 | 66 | 1009.2 |
| 20260503003014 | 41 | 345 | 1.7 | 1.7 | 0.00 | 0.04 | 0.04 | 66 | 1009.2 |
| 20260503002511 | 41 | 6 | 1.7 | 1.7 | 0.00 | 0.04 | 0.04 | 66 | 1009.3 |
| 20260503002008 | 42 | 343 | 2.6 | 4.3 | 0.00 | 0.04 | 0.04 | 65 | 1009.0 |
| 20260503001504 | 42 | 0 | 1.7 | 1.7 | 0.00 | 0.04 | 0.04 | 64 | 1009.1 |
| 20260503001001 | 42 | 316 | 2.6 | 2.6 | 0.00 | 0.04 | 0.04 | 64 | 1009.0 |
| 20260503000453 | 42 | 14 | 2.6 | 2.6 | 0.00 | 0.04 | 0.04 | 63 | 1009.0 |
| 20260502235950 | 43 | 306 | 2.6 | 2.6 | 0.00 | 0.04 | 0.04 | 62 | 1009.1 |
| 20260502235447 | 43 | 311 | 2.6 | 4.3 | 0.00 | 0.04 | 0.04 | 62 | 1008.9 |
| 20260502234944 | 43 | 318 | 2.6 | 2.6 | 0.00 | 0.04 | 0.04 | 62 | 1008.8 |
| 20260502234440 | 43 | 326 | 2.6 | 2.6 | 0.00 | 0.04 | 0.04 | 60 | 1009.0 |
| 20260502233938 | 44 | 28 | 0.9 | 0.9 | 0.00 | 0.04 | 0.04 | 62 | 1009.0 |
| 20260502233433 | 44 | 323 | 2.6 | 2.6 | 0.00 | 0.04 | 0.04 | 60 | 1009.0 |
| 20260502232930 | 44 | 336 | 1.7 | 1.7 | 0.00 | 0.04 | 0.04 | 60 | 1008.8 |
| 20260502232426 | 45 | 319 | 2.6 | 4.3 | 0.00 | 0.04 | 0.04 | 59 | 1008.8 |
| 20260502231923 | 45 | 320 | 2.6 | 4.3 | 0.00 | 0.04 | 0.04 | 59 | 1008.5 |
| 20260502231421 | 45 | 323 | 1.7 | 2.6 | 0.00 | 0.04 | 0.04 | 58 | 1008.6 |
| 20260502230919 | 45 | 19 | 2.6 | 2.6 | 0.00 | 0.04 | 0.04 | 58 | 1008.8 |
| 20260502230417 | 45 | 340 | 1.7 | 1.7 | 0.00 | 0.04 | 0.04 | 57 | 1008.5 |
| 20260502225915 | 46 | 226 | 3.5 | 4.3 | 0.00 | 0.04 | 0.04 | 56 | 1008.7 |
| 20260502225410 | 46 | 310 | 2.6 | 5.2 | 0.00 | 0.04 | 0.04 | 56 | 1008.6 |
| 20260502224908 | 46 | 311 | 2.6 | 2.6 | 0.00 | 0.04 | 0.04 | 56 | 1008.5 |
| 20260502224403 | 46 | 315 | 2.6 | 2.6 | 0.00 | 0.04 | 0.04 | 55 | 1008.4 |
| 20260502223900 | 45 | 324 | 2.6 | 2.6 | 0.00 | 0.04 | 0.04 | 56 | 1008.3 |
| 20260502223358 | 45 | 312 | 3.5 | 4.3 | 0.00 | 0.04 | 0.04 | 56 | 1008.2 |
| 20260502222856 | 45 | 315 | 4.3 | 5.2 | 0.00 | 0.04 | 0.04 | 55 | 1008.2 |
| 20260502222354 | 46 | 310 | 2.6 | 4.3 | 0.00 | 0.04 | 0.04 | 57 | 1008.3 |
| 20260502221849 | 46 | 317 | 2.6 | 4.3 | 0.00 | 0.04 | 0.04 | 57 | 1008.4 |
| 20260502221346 | 46 | 1 | 3.5 | 4.3 | 0.00 | 0.04 | 0.04 | 56 | 1008.3 |
| 20260502220843 | 46 | 315 | 1.7 | 2.6 | 0.00 | 0.04 | 0.04 | 56 | 1008.3 |
| 20260502220339 | 46 | 309 | 4.3 | 6.1 | 0.00 | 0.04 | 0.04 | 55 | 1008.2 |
| 20260502215835 | 46 | 305 | 2.6 | 2.6 | 0.00 | 0.04 | 0.04 | 55 | 1008.3 |
| 20260502215333 | 47 | 335 | 4.3 | 4.3 | 0.00 | 0.04 | 0.04 | 54 | 1008.6 |
| 20260502214829 | 47 | 313 | 2.6 | 2.6 | 0.00 | 0.04 | 0.04 | 54 | 1008.2 |
| 20260502214326 | 47 | 349 | 1.7 | 1.7 | 0.00 | 0.04 | 0.04 | 54 | 1008.4 |
| 20260502213824 | 47 | 308 | 3.5 | 4.3 | 0.00 | 0.04 | 0.04 | 53 | 1008.5 |
| 20260502213321 | 47 | 326 | 3.5 | 5.2 | 0.00 | 0.04 | 0.04 | 52 | 1008.3 |
| 20260502212820 | 47 | 304 | 3.5 | 5.2 | 0.00 | 0.04 | 0.04 | 52 | 1008.1 |
| 20260502212317 | 48 | 312 | 5.2 | 6.1 | 0.00 | 0.04 | 0.04 | 52 | 1008.1 |
| 20260502211815 | 48 | 285 | 1.7 | 1.7 | 0.00 | 0.04 | 0.04 | 50 | 1008.1 |
| 20260502211310 | 49 | 351 | 4.3 | 5.2 | 0.00 | 0.04 | 0.04 | 50 | 1008.2 |
| 20260502210807 | 49 | 27 | 2.6 | 2.6 | 0.00 | 0.04 | 0.04 | 50 | 1007.9 |
| 20260502210259 | 49 | 204 | 3.5 | 4.3 | 0.00 | 0.04 | 0.04 | 51 | 1007.9 |
| 20260502205756 | 50 | 334 | 2.6 | 4.3 | 0.00 | 0.04 | 0.04 | 49 | 1008.0 |
| 20260502205252 | 50 | 273 | 1.7 | 1.7 | 0.00 | 0.04 | 0.04 | 48 | 1007.8 |
| 20260502204749 | 51 | 17 | 0.9 | 0.9 | 0.00 | 0.04 | 0.04 | 48 | 1008.1 |
| 20260502204246 | 51 | 9 | 1.7 | 2.6 | 0.00 | 0.04 | 0.04 | 48 | 1008.2 |
| 20260502203744 | 51 | 1 | 0.9 | 1.7 | 0.00 | 0.04 | 0.04 | 47 | 1007.8 |
| 20260502203242 | 51 | 313 | 2.6 | 2.6 | 0.00 | 0.04 | 0.04 | 47 | 1008.2 |
| 20260502202736 | 50 | 32 | 1.7 | 1.7 | 0.00 | 0.04 | 0.04 | 48 | 1008.0 |
| 20260502202235 | 49 | 333 | 2.6 | 2.6 | 0.00 | 0.04 | 0.04 | 48 | 1008.1 |
| 20260502201732 | 50 | 316 | 3.5 | 4.3 | 0.00 | 0.04 | 0.04 | 49 | 1008.1 |
| 20260502201228 | 50 | 291 | 3.5 | 5.2 | 0.00 | 0.04 | 0.04 | 48 | 1008.1 |
| 20260502200724 | 48 | 357 | 1.7 | 1.7 | 0.00 | 0.04 | 0.04 | 50 | 1008.1 |
| 20260502200220 | 51 | 296 | 3.5 | 6.1 | 0.00 | 0.04 | 0.04 | 48 | 1008.3 |
| 20260502195719 | 51 | 309 | 4.3 | 5.2 | 0.00 | 0.04 | 0.04 | 48 | 1008.3 |
| 20260502195215 | 49 | 338 | 2.6 | 2.6 | 0.00 | 0.04 | 0.04 | 50 | 1008.2 |
| 20260502194711 | 51 | 300 | 3.5 | 5.2 | 0.00 | 0.04 | 0.04 | 47 | 1008.6 |
| 20260502194209 | 52 | 354 | 1.7 | 1.7 | 0.00 | 0.04 | 0.04 | 45 | 1008.4 |
| 20260502193704 | 52 | 313 | 4.3 | 6.1 | 0.00 | 0.04 | 0.04 | 45 | 1008.5 |
| 20260502193202 | 52 | 298 | 3.5 | 5.2 | 0.00 | 0.04 | 0.04 | 43 | 1008.7 |
| 20260502192657 | 51 | 347 | 5.2 | 7.0 | 0.00 | 0.04 | 0.04 | 46 | 1008.4 |
| 20260502192155 | 51 | 290 | 3.5 | 5.2 | 0.00 | 0.04 | 0.04 | 45 | 1008.5 |
| 20260502191651 | 52 | 343 | 2.6 | 4.3 | 0.00 | 0.04 | 0.04 | 46 | 1008.6 |
| 20260502191149 | 50 | 319 | 1.7 | 2.6 | 0.00 | 0.04 | 0.04 | 47 | 1008.4 |
| 20260502190646 | 52 | 320 | 4.3 | 6.1 | 0.00 | 0.04 | 0.04 | 44 | 1008.6 |
| 20260502190144 | 53 | 311 | 4.3 | 4.3 | 0.00 | 0.04 | 0.04 | 45 | 1008.7 |
| 20260502185638 | 52 | 307 | 2.6 | 2.6 | 0.00 | 0.04 | 0.04 | 48 | 1008.6 |
| 20260502185135 | 51 | 311 | 4.3 | 5.2 | 0.00 | 0.04 | 0.04 | 46 | 1008.7 |
| 20260502184632 | 51 | 308 | 2.6 | 2.6 | 0.00 | 0.04 | 0.04 | 47 | 1008.7 |
| 20260502184127 | 51 | 305 | 1.7 | 1.7 | 0.00 | 0.04 | 0.04 | 47 | 1008.8 |
| 20260502183624 | 51 | 306 | 4.3 | 5.2 | 0.00 | 0.04 | 0.04 | 46 | 1008.7 |
| 20260502183120 | 52 | 321 | 2.6 | 4.3 | 0.00 | 0.04 | 0.04 | 44 | 1008.6 |
| 20260502182615 | 52 | 259 | 2.6 | 5.2 | 0.00 | 0.04 | 0.04 | 46 | 1008.7 |
| 20260502182111 | 51 | 296 | 4.3 | 5.2 | 0.00 | 0.04 | 0.04 | 46 | 1008.5 |
| 20260502181609 | 52 | 311 | 4.3 | 6.1 | 0.00 | 0.04 | 0.04 | 45 | 1008.6 |
| 20260502181108 | 52 | 123 | 2.6 | 4.3 | 0.00 | 0.04 | 0.04 | 43 | 1008.4 |
| 20260502180604 | 52 | 219 | 2.6 | 2.6 | 0.00 | 0.04 | 0.04 | 45 | 1008.3 |
| 20260502164008 | 53 | 299 | 3.5 | 4.3 | 0.00 | 0.04 | 0.04 | 56 | 1008.8 |
| 20260502163503 | 51 | 3 | 0.9 | 1.7 | 0.00 | 0.04 | 0.04 | 61 | 1008.6 |
| 20260502163000 | 50 | 333 | 3.5 | 5.2 | 0.00 | 0.04 | 0.04 | 60 | 1008.6 |
| 20260502162457 | 52 | 288 | 1.7 | 2.6 | 0.00 | 0.04 | 0.04 | 54 | 1008.8 |
| 20260502161954 | 53 | 272 | 1.7 | 1.7 | 0.00 | 0.04 | 0.04 | 58 | 1008.7 |
| 20260502161450 | 51 | 267 | 3.5 | 4.3 | 0.00 | 0.04 | 0.04 | 58 | 1008.7 |
| 20260502160949 | 50 | 308 | 2.6 | 2.6 | 0.00 | 0.04 | 0.04 | 62 | 1008.6 |
| 20260502160446 | 49 | 349 | 0.9 | 0.9 | 0.00 | 0.04 | 0.04 | 63 | 1008.7 |
| 20260502151930 | 50 | 239 | 2.6 | 4.3 | 0.00 | 0.04 | 0.04 | 66 | 1008.7 |
| 20260502151426 | 48 | 201 | 2.6 | 2.6 | 0.00 | 0.04 | 0.04 | 68 | 1008.8 |
| 20260502150924 | 48 | 294 | 1.7 | 4.3 | 0.00 | 0.04 | 0.04 | 70 | 1008.7 |
| 20260502150420 | 49 | 321 | 2.6 | 4.3 | 0.00 | 0.04 | 0.04 | 69 | 1008.9 |
| 20260502130306 | 42 | 258 | 1.7 | 2.6 | 0.00 | 0.04 | 0.04 | 87 | 1009.2 |
| 20260502123752 | 41 | 350 | 0.9 | 1.7 | 0.00 | 0.04 | 0.04 | 92 | 1009.1 |
| 20260502123249 | 41 | 359 | 1.7 | 1.7 | 0.00 | 0.04 | 0.04 | 91 | 1009.2 |
| 20260502122745 | 40 | 323 | 2.6 | 2.6 | 0.00 | 0.04 | 0.04 | 91 | 1009.1 |
| 20260502122241 | 40 | 288 | 2.6 | 4.3 | 0.00 | 0.04 | 0.04 | 91 | 1009.2 |
| 20260502121740 | 40 | 21 | 1.7 | 1.7 | 0.00 | 0.04 | 0.04 | 92 | 1009.2 |
| 20260502121238 | 40 | 313 | 2.6 | 4.3 | 0.00 | 0.04 | 0.04 | 93 | 1009.2 |
| 20260502120733 | 40 | 315 | 1.7 | 1.7 | 0.00 | 0.04 | 0.04 | 93 | 1008.9 |
| 20260502120230 | 40 | 48 | 0.0 | 0.9 | 0.00 | 0.04 | 0.04 | 94 | 1009.0 |
| 20260502115728 | 40 | 44 | 0.9 | 1.7 | 0.00 | 0.04 | 0.04 | 95 | 1009.0 |
| 20260502115225 | 40 | 315 | 3.5 | 4.3 | 0.00 | 0.04 | 0.04 | 95 | 1009.0 |
| 20260502114720 | 40 | 289 | 1.7 | 2.6 | 0.00 | 0.04 | 0.04 | 96 | 1009.0 |
| 20260502114218 | 39 | 276 | 2.6 | 2.6 | 0.00 | 0.04 | 0.04 | 96 | 1009.2 |
| 20260502113715 | 39 | 347 | 1.7 | 1.7 | 0.00 | 0.04 | 0.04 | 97 | 1009.4 |
| 20260502113213 | 39 | 320 | 1.7 | 2.6 | 0.00 | 0.04 | 0.04 | 97 | 1009.0 |
| 20260502112711 | 39 | 128 | 0.9 | 0.9 | 0.00 | 0.04 | 0.04 | 98 | 1009.1 |
| 20260502112208 | 39 | 47 | 0.0 | 0.9 | 0.00 | 0.04 | 0.04 | 98 | 1009.1 |
| 20260502111705 | 39 | 14 | 0.9 | 0.9 | 0.00 | 0.04 | 0.04 | 98 | 1008.8 |
| 20260502111203 | 39 | 306 | 0.0 | 0.0 | 0.00 | 0.04 | 0.04 | 98 | 1008.9 |
| 20260502110700 | 39 | 20 | 0.0 | 0.0 | 0.00 | 0.04 | 0.04 | 98 | 1008.8 |
| 20260502110157 | 39 | 61 | 0.9 | 0.9 | 0.00 | 0.04 | 0.04 | 98 | 1008.9 |
| 20260502105655 | 39 | 73 | 0.0 | 0.0 | 0.00 | 0.04 | 0.04 | 98 | 1008.9 |
| 20260502105152 | 39 | 23 | 0.0 | 0.9 | 0.00 | 0.04 | 0.04 | 98 | 1008.8 |
| 20260502104649 | 39 | 241 | 1.7 | 1.7 | 0.00 | 0.04 | 0.04 | 98 | 1008.7 |
| 20260502104147 | 39 | 338 | 0.9 | 1.7 | 0.00 | 0.04 | 0.04 | 98 | 1008.7 |
| 20260502103644 | 39 | 170 | 0.9 | 1.7 | 0.00 | 0.04 | 0.04 | 99 | 1008.6 |
| 20260502103142 | 39 | 328 | 2.6 | 2.6 | 0.00 | 0.04 | 0.04 | 99 | 1008.6 |
| 20260502102638 | 39 | 16 | 0.0 | 0.0 | 0.00 | 0.04 | 0.04 | 99 | 1008.7 |
| 20260502102135 | 39 | 5 | 0.9 | 0.9 | 0.00 | 0.04 | 0.04 | 99 | 1008.7 |
| 20260502101633 | 39 | 312 | 2.6 | 4.3 | 0.00 | 0.04 | 0.04 | 99 | 1008.5 |
| 20260502101131 | 39 | 328 | 2.6 | 2.6 | 0.00 | 0.04 | 0.04 | 99 | 1008.4 |
| 20260502100629 | 39 | 340 | 2.6 | 2.6 | 0.00 | 0.04 | 0.04 | 99 | 1008.3 |
| 20260502100127 | 39 | 345 | 0.0 | 0.0 | 0.00 | 0.04 | 0.04 | 99 | 1008.3 |
| 20260502091101 | 40 | 30 | 0.0 | 0.0 | 0.00 | 0.04 | 0.04 | 99 | 1008.1 |
| 20260502090558 | 40 | 33 | 0.9 | 0.9 | 0.00 | 0.04 | 0.04 | 99 | 1008.1 |
| 20260502071452 | 43 | 73 | 0.0 | 0.0 | 0.00 | 0.02 | 0.02 | 99 | 1007.9 |
| 20260502070950 | 43 | 71 | 0.0 | 0.0 | 0.00 | 0.02 | 0.02 | 99 | 1007.8 |
| 20260502070448 | 43 | 71 | 0.0 | 0.0 | 0.00 | 0.02 | 0.02 | 99 | 1007.8 |
| 20260502065946 | 43 | 75 | 0.0 | 0.0 | 0.00 | 0.02 | 0.02 | 99 | 1007.7 |
| 20260502065445 | 43 | 75 | 0.0 | 0.0 | 0.00 | 0.02 | 0.02 | 99 | 1007.9 |
| 20260502064942 | 43 | 76 | 0.0 | 0.0 | 0.00 | 0.02 | 0.02 | 99 | 1007.9 |
| 20260502064440 | 43 | 72 | 0.0 | 0.0 | 0.00 | 0.02 | 0.02 | 99 | 1008.0 |
| 20260502063937 | 43 | 84 | 0.0 | 0.0 | 0.00 | 0.02 | 0.02 | 99 | 1008.1 |
| 20260502063435 | 43 | 82 | 0.0 | 0.0 | 0.00 | 0.02 | 0.02 | 99 | 1007.9 |
| 20260502062932 | 43 | 83 | 0.0 | 0.0 | 0.00 | 0.02 | 0.02 | 99 | 1007.9 |
| 20260502062429 | 43 | 83 | 0.0 | 0.0 | 0.00 | 0.02 | 0.02 | 99 | 1008.1 |
| 20260502061928 | 43 | 86 | 0.0 | 0.0 | 0.00 | 0.02 | 0.02 | 99 | 1008.1 |
| 20260502061426 | 43 | 69 | 0.0 | 0.0 | 0.00 | 0.02 | 0.02 | 99 | 1008.0 |
| 20260502060921 | 43 | 86 | 0.0 | 0.0 | 0.00 | 0.02 | 0.02 | 99 | 1008.0 |
| 20260502060416 | 43 | 65 | 0.0 | 0.0 | 0.00 | 0.02 | 0.02 | 99 | 1007.8 |
| 20260502055914 | 43 | 58 | 0.0 | 0.0 | 0.00 | 0.02 | 0.02 | 99 | 1007.7 |
| 20260502055412 | 43 | 60 | 0.0 | 0.0 | 0.00 | 0.02 | 0.02 | 99 | 1007.7 |
| 20260502054912 | 43 | 60 | 0.0 | 0.0 | 0.00 | 0.02 | 0.02 | 99 | 1008.0 |
| 20260502054409 | 43 | 60 | 0.0 | 0.0 | 0.00 | 0.02 | 0.02 | 99 | 1008.3 |
| 20260502053906 | 43 | 60 | 0.0 | 0.0 | 0.00 | 0.02 | 0.02 | 99 | 1008.3 |
| 20260502053404 | 43 | 60 | 0.0 | 0.0 | 0.00 | 0.02 | 0.02 | 99 | 1008.2 |
| 20260502052900 | 43 | 60 | 0.0 | 0.0 | 0.00 | 0.02 | 0.02 | 99 | 1008.1 |
| 20260502052358 | 43 | 60 | 0.0 | 0.0 | 0.00 | 0.02 | 0.02 | 99 | 1008.3 |
| 20260502051856 | 43 | 59 | 0.0 | 0.0 | 0.00 | 0.02 | 0.02 | 99 | 1008.2 |
| 20260502051355 | 43 | 59 | 0.0 | 0.0 | 0.00 | 0.02 | 0.02 | 99 | 1008.4 |
| 20260502050851 | 43 | 58 | 0.0 | 0.0 | 0.00 | 0.02 | 0.02 | 99 | 1008.3 |